Time,TemperatureF,DewpointF,PressureIn,WindDirection,WindDirectionDegrees,WindSpeedMPH,WindSpeedGustMPH,Humidity,HourlyPrecipIn,Conditions,Clouds,dailyrainin,SoftwareType,DateUTC
2013-03-14 00:06:00,45.8,35.0,30.35,SE,132,0.0,0.0,65,0.00,,,0.00,weatherlink.com 1.10,2013-03-14 05:06:00,
2013-03-14 00:21:00,45.6,34.0,30.35,SE,132,0.0,1.0,65,0.00,,,0.00,weatherlink.com 1.10,2013-03-14 05:21:00,
2013-03-14 00:36:00,44.7,34.0,30.35,East,90,0.0,0.0,67,0.00,,,0.00,weatherlink.com 1.10,2013-03-14 05:36:00,
2013-03-14 00:51:00,44.0,34.0,30.35,East,92,0.0,0.0,68,0.00,,,0.00,weatherlink.com 1.10,2013-03-14 05:51:00,
2013-03-14 01:06:00,43.4,34.0,30.35,SE,141,0.0,0.0,70,0.00,,,0.00,weatherlink.com 1.10,2013-03-14 06:06:00,
2013-03-14 01:21:00,44.2,34.0,30.35,SE,134,0.0,1.0,68,0.00,,,0.00,weatherlink.com 1.10,2013-03-14 06:21:00,
2013-03-14 01:37:00,44.6,34.0,30.34,SE,138,0.0,1.0,67,0.00,,,0.00,weatherlink.com 1.10,2013-03-14 06:37:00,
2013-03-14 01:51:00,44.2,34.0,30.34,SSE,151,0.0,0.0,67,0.00,,,0.00,weatherlink.com 1.10,2013-03-14 06:51:00,
2013-03-14 02:06:00,42.9,34.0,30.34,SSE,151,0.0,0.0,70,0.00,,,0.00,weatherlink.com 1.10,2013-03-14 07:06:00,
2013-03-14 02:22:00,41.0,33.0,30.35,SSE,150,0.0,0.0,72,0.00,,,0.00,weatherlink.com 1.10,2013-03-14 07:22:00,
2013-03-14 02:37:00,39.5,32.0,30.35,SSE,150,0.0,0.0,74,0.00,,,0.00,weatherlink.com 1.10,2013-03-14 07:37:00,
2013-03-14 02:52:00,38.8,33.0,30.35,SSE,150,0.0,0.0,78,0.00,,,0.00,weatherlink.com 1.10,2013-03-14 07:52:00,
2013-03-14 03:07:00,38.1,32.0,30.34,SSE,150,0.0,0.0,78,0.00,,,0.00,weatherlink.com 1.10,2013-03-14 08:07:00,
2013-03-14 03:22:00,37.7,32.0,30.34,SSE,150,0.0,0.0,79,0.00,,,0.00,weatherlink.com 1.10,2013-03-14 08:22:00,
2013-03-14 03:37:00,38.0,33.0,30.34,SSE,167,0.0,1.0,81,0.00,,,0.00,weatherlink.com 1.10,2013-03-14 08:37:00,
2013-03-14 03:52:00,37.7,32.0,30.32,SSE,167,0.0,0.0,81,0.00,,,0.00,weatherlink.com 1.10,2013-03-14 08:52:00,
2013-03-14 04:07:00,37.5,32.0,30.32,SSE,167,0.0,0.0,81,0.00,,,0.00,weatherlink.com 1.10,2013-03-14 09:07:00,
2013-03-14 04:22:00,36.7,32.0,30.31,SSE,166,0.0,0.0,83,0.00,,,0.00,weatherlink.com 1.10,2013-03-14 09:22:00,
2013-03-14 04:37:00,36.8,32.0,30.31,SSE,167,0.0,0.0,83,0.00,,,0.00,weatherlink.com 1.10,2013-03-14 09:37:00,
2013-03-14 04:52:00,37.2,33.0,30.31,SSE,166,0.0,0.0,83,0.00,,,0.00,weatherlink.com 1.10,2013-03-14 09:52:00,
2013-03-14 05:07:00,36.3,32.0,30.30,SSE,167,0.0,0.0,84,0.00,,,0.00,weatherlink.com 1.10,2013-03-14 10:07:00,
2013-03-14 05:22:00,35.7,32.0,30.30,SE,144,0.0,0.0,85,0.00,,,0.00,weatherlink.com 1.10,2013-03-14 10:22:00,
2013-03-14 05:37:00,35.4,32.0,30.30,SE,144,0.0,0.0,87,0.00,,,0.00,weatherlink.com 1.10,2013-03-14 10:37:00,
2013-03-14 05:52:00,-999.0,-99.9,30.30,North,-999,-999.0,-999.0,-999,0.00,,,0.00,weatherlink.com 1.10,2013-03-14 10:52:00,
2013-03-14 06:07:00,-999.0,-99.9,30.30,North,-999,-999.0,-999.0,-999,0.00,,,0.00,weatherlink.com 1.10,2013-03-14 11:07:00,
2013-03-14 06:22:00,-999.0,-99.9,30.30,North,-999,-999.0,-999.0,-999,0.00,,,0.00,weatherlink.com 1.10,2013-03-14 11:22:00,
2013-03-14 06:37:00,-999.0,-99.9,30.29,North,-999,-999.0,-999.0,-999,0.00,,,0.00,weatherlink.com 1.10,2013-03-14 11:37:00,
2013-03-14 06:52:00,-999.0,-99.9,30.29,North,-999,-999.0,-999.0,-999,0.00,,,0.00,weatherlink.com 1.10,2013-03-14 11:52:00,
2013-03-14 07:07:00,-999.0,-99.9,30.30,North,-999,-999.0,-999.0,-999,0.00,,,0.00,weatherlink.com 1.10,2013-03-14 12:07:00,
2013-03-14 07:22:00,-999.0,-99.9,30.30,North,-999,-999.0,-999.0,-999,0.00,,,0.00,weatherlink.com 1.10,2013-03-14 12:22:00,
2013-03-14 07:38:00,-999.0,-99.9,30.31,North,-999,-999.0,-999.0,-999,0.00,,,0.00,weatherlink.com 1.10,2013-03-14 12:38:00,
2013-03-14 07:52:00,-999.0,-99.9,30.31,North,-999,-999.0,-999.0,-999,0.00,,,0.00,weatherlink.com 1.10,2013-03-14 12:52:00,
2013-03-14 08:07:00,-999.0,-99.9,30.31,North,-999,-999.0,-999.0,-999,0.00,,,0.00,weatherlink.com 1.10,2013-03-14 13:07:00,
2013-03-14 08:22:00,40.0,34.0,30.32,SE,138,0.0,0.0,80,0.00,,,0.00,weatherlink.com 1.10,2013-03-14 13:22:00,
2013-03-14 08:37:00,42.7,36.0,30.32,SE,138,0.0,1.0,76,0.00,,,0.00,weatherlink.com 1.10,2013-03-14 13:37:00,
2013-03-14 08:52:00,45.4,36.0,30.32,SE,125,0.0,3.0,71,0.00,,,0.00,weatherlink.com 1.10,2013-03-14 13:52:00,
2013-03-14 09:07:00,47.4,37.0,30.32,SSE,159,2.0,4.0,67,0.00,,,0.00,weatherlink.com 1.10,2013-03-14 14:07:00,
2013-03-14 09:23:00,49.1,38.0,30.32,East,100,0.0,4.0,66,0.00,,,0.00,weatherlink.com 1.10,2013-03-14 14:23:00,
2013-03-14 09:37:00,51.5,41.0,30.32,SE,134,2.0,3.0,67,0.00,,,0.00,weatherlink.com 1.10,2013-03-14 14:37:00,
2013-03-14 09:52:00,55.0,40.0,30.32,SSE,153,4.0,10.0,58,0.00,,,0.00,weatherlink.com 1.10,2013-03-14 14:52:00,
2013-03-14 10:07:00,57.0,40.0,30.31,SE,140,2.0,9.0,54,0.00,,,0.00,weatherlink.com 1.10,2013-03-14 15:07:00,
2013-03-14 10:22:00,58.2,41.0,30.31,SSW,207,7.0,10.0,53,0.00,,,0.00,weatherlink.com 1.10,2013-03-14 15:22:00,
2013-03-14 10:37:00,59.3,42.0,30.31,SE,135,3.0,11.0,53,0.00,,,0.00,weatherlink.com 1.10,2013-03-14 15:37:00,
2013-03-14 10:52:00,61.4,42.0,30.31,SW,218,5.0,10.0,50,0.00,,,0.00,weatherlink.com 1.10,2013-03-14 15:52:00,
2013-03-14 11:08:00,64.2,43.0,30.30,SE,146,3.0,13.0,46,0.00,,,0.00,weatherlink.com 1.10,2013-03-14 16:08:00,
2013-03-14 11:22:00,65.8,43.0,30.30,SW,214,2.0,12.0,43,0.00,,,0.00,weatherlink.com 1.10,2013-03-14 16:22:00,
2013-03-14 11:37:00,67.6,44.0,30.29,WSW,249,5.0,12.0,42,0.00,,,0.00,weatherlink.com 1.10,2013-03-14 16:37:00,
2013-03-14 11:52:00,69.5,43.0,30.28,SSW,197,2.0,10.0,39,0.00,,,0.00,weatherlink.com 1.10,2013-03-14 16:52:00,
2013-03-14 12:07:00,71.0,43.0,30.28,West,277,6.0,12.0,37,0.00,,,0.00,weatherlink.com 1.10,2013-03-14 17:07:00,
2013-03-14 12:23:00,71.5,44.0,30.27,SW,221,4.0,13.0,38,0.00,,,0.00,weatherlink.com 1.10,2013-03-14 17:23:00,
2013-03-14 12:38:00,71.9,45.0,30.27,SW,231,8.0,10.0,38,0.00,,,0.00,weatherlink.com 1.10,2013-03-14 17:38:00,
2013-03-14 12:53:00,72.3,46.0,30.27,SW,226,6.0,12.0,39,0.00,,,0.00,weatherlink.com 1.10,2013-03-14 17:53:00,
2013-03-14 13:08:00,72.4,45.0,30.26,SW,224,8.0,14.0,38,0.00,,,0.00,weatherlink.com 1.10,2013-03-14 18:08:00,
2013-03-14 13:23:00,73.2,45.0,30.26,WSW,249,10.0,14.0,36,0.00,,,0.00,weatherlink.com 1.10,2013-03-14 18:23:00,
2013-03-14 13:38:00,73.6,45.0,30.25,SW,236,6.0,12.0,36,0.00,,,0.00,weatherlink.com 1.10,2013-03-14 18:38:00,
2013-03-14 13:53:00,73.7,46.0,30.25,SW,224,1.0,12.0,37,0.00,,,0.00,weatherlink.com 1.10,2013-03-14 18:53:00,
2013-03-14 14:08:00,74.2,45.0,30.25,SW,224,6.0,15.0,36,0.00,,,0.00,weatherlink.com 1.10,2013-03-14 19:08:00,
2013-03-14 14:23:00,73.8,47.0,30.24,SW,236,4.0,11.0,38,0.00,,,0.00,weatherlink.com 1.10,2013-03-14 19:23:00,
2013-03-14 14:38:00,74.2,45.0,30.23,SW,233,8.0,13.0,36,0.00,,,0.00,weatherlink.com 1.10,2013-03-14 19:38:00,
2013-03-14 14:53:00,75.2,46.0,30.22,WSW,247,6.0,13.0,36,0.00,,,0.00,weatherlink.com 1.10,2013-03-14 19:53:00,
2013-03-14 15:08:00,75.3,45.0,30.21,WSW,245,5.0,9.0,34,0.00,,,0.00,weatherlink.com 1.10,2013-03-14 20:08:00,
2013-03-14 15:23:00,76.4,46.0,30.20,South,181,6.0,14.0,34,0.00,,,0.00,weatherlink.com 1.10,2013-03-14 20:23:00,
2013-03-14 15:38:00,76.5,46.0,30.20,West,269,1.0,13.0,34,0.00,,,0.00,weatherlink.com 1.10,2013-03-14 20:38:00,
2013-03-14 15:53:00,77.1,46.0,30.20,SSE,158,4.0,12.0,33,0.00,,,0.00,weatherlink.com 1.10,2013-03-14 20:53:00,
2013-03-14 16:08:00,77.3,45.0,30.19,South,191,4.0,10.0,32,0.00,,,0.00,weatherlink.com 1.10,2013-03-14 21:08:00,
2013-03-14 16:23:00,77.7,46.0,30.18,SW,215,1.0,9.0,32,0.00,,,0.00,weatherlink.com 1.10,2013-03-14 21:23:00,
2013-03-14 16:38:00,78.3,45.0,30.18,SW,229,5.0,8.0,31,0.00,,,0.00,weatherlink.com 1.10,2013-03-14 21:38:00,
2013-03-14 16:53:00,78.7,45.0,30.18,SSW,205,8.0,9.0,30,0.00,,,0.00,weatherlink.com 1.10,2013-03-14 21:53:00,
2013-03-14 17:08:00,78.7,44.0,30.17,SW,222,1.0,8.0,29,0.00,,,0.00,weatherlink.com 1.10,2013-03-14 22:08:00,
2013-03-14 17:23:00,79.1,45.0,30.17,SSE,158,4.0,9.0,30,0.00,,,0.00,weatherlink.com 1.10,2013-03-14 22:23:00,
2013-03-14 17:38:00,78.3,45.0,30.16,SSE,148,3.0,11.0,31,0.00,,,0.00,weatherlink.com 1.10,2013-03-14 22:38:00,
2013-03-14 17:53:00,78.4,44.0,30.16,SW,231,2.0,9.0,29,0.00,,,0.00,weatherlink.com 1.10,2013-03-14 22:53:00,
2013-03-14 18:08:00,77.7,43.0,30.16,SW,231,4.0,12.0,29,0.00,,,0.00,weatherlink.com 1.10,2013-03-14 23:08:00,
2013-03-14 18:23:00,77.2,42.0,30.16,South,174,2.0,10.0,28,0.00,,,0.00,weatherlink.com 1.10,2013-03-14 23:23:00,
2013-03-14 18:38:00,77.0,42.0,30.16,SSW,208,2.0,7.0,29,0.00,,,0.00,weatherlink.com 1.10,2013-03-14 23:38:00,
2013-03-14 18:53:00,76.2,43.0,30.15,WSW,240,4.0,6.0,30,0.00,,,0.00,weatherlink.com 1.10,2013-03-14 23:53:00,
2013-03-14 19:08:00,75.0,42.0,30.15,SSE,148,2.0,8.0,31,0.00,,,0.00,weatherlink.com 1.10,2013-03-15 00:08:00,
2013-03-14 19:23:00,73.2,43.0,30.14,SE,132,3.0,5.0,34,0.00,,,0.00,weatherlink.com 1.10,2013-03-15 00:23:00,
2013-03-14 19:38:00,71.3,44.0,30.14,SSE,155,2.0,3.0,37,0.00,,,0.00,weatherlink.com 1.10,2013-03-15 00:38:00,
2013-03-14 19:53:00,69.8,44.0,30.14,SE,140,4.0,6.0,40,0.00,,,0.00,weatherlink.com 1.10,2013-03-15 00:53:00,
2013-03-14 20:08:00,68.4,45.0,30.15,SSE,149,2.0,5.0,43,0.00,,,0.00,weatherlink.com 1.10,2013-03-15 01:08:00,
2013-03-14 20:23:00,67.3,45.0,30.15,SE,134,0.0,5.0,45,0.00,,,0.00,weatherlink.com 1.10,2013-03-15 01:23:00,
2013-03-14 20:38:00,66.4,45.0,30.15,SSE,160,2.0,5.0,46,0.00,,,0.00,weatherlink.com 1.10,2013-03-15 01:38:00,
2013-03-14 20:53:00,65.6,45.0,30.15,SSE,150,1.0,5.0,48,0.00,,,0.00,weatherlink.com 1.10,2013-03-15 01:53:00,
2013-03-14 21:08:00,64.8,45.0,30.14,SW,229,0.0,5.0,49,0.00,,,0.00,weatherlink.com 1.10,2013-03-15 02:08:00,
2013-03-14 21:23:00,64.4,45.0,30.14,South,180,3.0,5.0,49,0.00,,,0.00,weatherlink.com 1.10,2013-03-15 02:23:00,
2013-03-14 21:38:00,64.0,45.0,30.15,SSE,164,2.0,5.0,50,0.00,,,0.00,weatherlink.com 1.10,2013-03-15 02:38:00,
2013-03-14 21:53:00,63.4,45.0,30.14,SE,142,3.0,7.0,51,0.00,,,0.00,weatherlink.com 1.10,2013-03-15 02:53:00,
2013-03-14 22:08:00,63.3,45.0,30.15,SSE,149,8.0,8.0,52,0.00,,,0.00,weatherlink.com 1.10,2013-03-15 03:08:00,
2013-03-14 22:23:00,63.0,45.0,30.15,SSE,165,2.0,7.0,52,0.00,,,0.00,weatherlink.com 1.10,2013-03-15 03:23:00,
2013-03-14 22:38:00,62.4,45.0,30.15,SSE,149,2.0,6.0,53,0.00,,,0.00,weatherlink.com 1.10,2013-03-15 03:38:00,
2013-03-14 22:54:00,61.8,45.0,30.16,SSE,155,2.0,7.0,54,0.00,,,0.00,weatherlink.com 1.10,2013-03-15 03:54:00,
2013-03-14 23:09:00,61.2,45.0,30.15,SSW,194,2.0,8.0,55,0.00,,,0.00,weatherlink.com 1.10,2013-03-15 04:09:00,
2013-03-14 23:24:00,61.0,45.0,30.15,SSE,149,8.0,9.0,56,0.00,,,0.00,weatherlink.com 1.10,2013-03-15 04:24:00,
2013-03-14 23:39:00,61.3,46.0,30.15,WSW,242,4.0,9.0,57,0.00,,,0.00,weatherlink.com 1.10,2013-03-15 04:39:00,
2013-03-14 23:54:00,61.5,46.0,30.15,SW,221,3.0,10.0,57,0.00,,,0.00,weatherlink.com 1.10,2013-03-15 04:54:00,